Date String (YYYY-MM-DD hh:mm:ss) UTC,Instrument flags,Ambient pressure (hPa),Sample flow (lpm),Bypass flow (lpm),Sample temperature (°C),Ambient temperature (°C),ASC tube jacket temperature (°C),LED temperature (°C),Box temperature (°C),Sample RH (%),Span deviation,Mass concentration (μg/m³),Mass concentration (μg/m³),Mass concentration (μg/m³)
DateTimeUTC,F1_M11,P_M11,Q1_M11,Q2_M11,T1_M11,T2_M11,T3_M11,T4_M11,T5_M11,U1_M11,ZSPAN_M11,X0_M11,X2_M11,X1_M11
2021-11-14 06:00:00,,0832.6,5.00,0.00,26.6,25.7,00.0,35.9,28.3,14.0,0000.0,0015.73,0003.42,0000.97
2021-11-14 06:01:00,,0832.7,5.00,0.00,26.6,25.6,00.0,35.8,28.3,14.0,0000.0,0016.12,0003.40,0000.95
2021-11-14 06:02:00,,0832.7,4.99,0.00,26.6,25.6,00.0,35.8,28.2,14.0,0000.0,0016.28,0003.40,0000.93
2021-11-14 06:03:00,,0832.7,4.99,0.00,26.6,25.6,00.0,35.8,28.2,14.0,0000.0,0015.62,0003.37,0000.90
2021-11-14 06:04:00,,0832.7,5.01,0.00,26.5,25.6,00.0,35.8,28.2,14.0,0000.0,0015.79,0003.33,0000.87
2021-11-14 06:05:00,,0832.7,4.98,0.00,26.5,25.6,00.0,35.8,28.2,14.1,0000.0,0016.27,0003.27,0000.85
2021-11-14 06:06:00,,0832.6,5.00,0.00,26.5,25.5,00.0,35.7,28.1,14.1,0000.0,0017.24,0003.25,0000.82
2021-11-14 06:07:00,,0832.7,5.00,0.00,26.4,25.4,00.0,35.7,28.1,14.1,0000.0,0017.37,0003.19,0000.80
2021-11-14 06:08:00,,0832.6,5.00,0.00,26.4,25.3,00.0,35.7,28.0,14.1,0000.0,0015.54,0003.09,0000.79
2021-11-14 06:09:00,,0832.6,5.01,0.00,26.4,25.3,00.0,35.6,28.0,14.1,0000.0,0014.93,0002.96,0000.77
2021-11-14 06:10:00,,0832.6,4.99,0.00,26.3,25.3,00.0,35.6,28.0,14.2,0000.0,0014.93,0002.99,0000.77
2021-11-14 06:11:00,,0832.6,5.01,0.00,26.3,25.2,00.0,35.6,28.0,14.2,0000.0,0015.00,0003.07,0000.78
2021-11-14 06:12:00,,0832.7,4.99,0.00,26.3,25.3,00.0,35.6,28.0,14.2,0000.0,0014.26,0003.05,0000.79
2021-11-14 06:13:00,,0832.8,5.00,0.00,26.3,25.3,00.0,35.5,28.0,14.2,0000.0,0013.67,0002.99,0000.78
2021-11-14 06:14:00,,0832.7,5.00,0.00,26.3,25.3,00.0,35.5,27.9,14.2,0000.0,0013.65,0002.95,0000.77
2021-11-14 06:15:00,,0832.7,5.00,0.00,26.3,25.3,00.0,35.5,28.0,14.2,0000.0,0013.41,0003.04,0000.77
2021-11-14 06:16:00,,0832.6,5.00,0.00,26.3,25.3,00.0,35.5,28.0,14.2,0000.0,0013.07,0002.96,0000.76
2021-11-14 06:17:00,,0832.6,5.00,0.00,26.2,25.4,00.0,35.5,28.0,14.2,0000.0,0012.12,0002.90,0000.78
2021-11-14 06:18:00,,0832.7,4.99,0.00,26.2,25.4,00.0,35.4,28.0,14.3,0000.0,0011.41,0002.91,0000.79
2021-11-14 06:19:00,,0832.7,5.02,0.00,26.2,25.4,00.0,35.4,28.0,14.3,0000.0,0011.39,0002.90,0000.78
2021-11-14 06:20:00,,0832.7,5.00,0.00,26.2,25.4,00.0,35.4,28.0,14.3,0000.0,0012.24,0003.00,0000.79
2021-11-14 06:21:00,,0832.7,4.98,0.00,26.2,25.3,00.0,35.4,27.9,14.3,0000.0,0012.96,0003.04,0000.80
2021-11-14 06:22:00,,0832.7,5.00,0.00,26.2,25.3,00.0,35.4,27.9,14.3,0000.0,0012.45,0003.08,0000.80
2021-11-14 06:23:00,,0832.7,5.00,0.00,26.2,25.3,00.0,35.4,27.9,14.3,0000.0,0013.17,0003.12,0000.79
2021-11-14 06:24:00,,0832.7,4.99,0.00,26.2,25.3,00.0,35.3,27.9,14.3,0000.0,0014.18,0003.15,0000.80
2021-11-14 06:25:00,,0832.7,5.01,0.00,26.2,25.3,00.0,35.3,27.9,14.3,0000.0,0014.36,0003.13,0000.80
2021-11-14 06:26:00,,0832.6,5.01,0.00,26.1,25.3,00.0,35.3,27.8,14.3,0000.0,0014.68,0003.04,0000.80
2021-11-14 06:27:00,,0832.6,5.00,0.00,26.1,25.2,00.0,35.3,27.8,14.3,0000.0,0014.37,0003.06,0000.81
2021-11-14 06:28:00,,0832.7,5.00,0.00,26.1,25.2,00.0,35.3,27.8,14.3,0000.0,0014.41,0003.01,0000.78
2021-11-14 06:29:00,,0832.6,5.00,0.00,26.1,25.2,00.0,35.3,27.8,14.2,0000.0,0015.34,0002.99,0000.76
2021-11-14 06:30:00,,0832.7,4.99,0.00,26.1,25.2,00.0,35.2,27.8,14.2,0000.0,0016.35,0002.99,0000.77
2021-11-14 06:31:00,,0832.8,5.01,0.00,26.1,25.2,00.0,35.2,27.8,14.1,0000.0,0016.62,0002.93,0000.75
2021-11-14 06:32:00,,0832.8,4.99,0.00,26.1,25.2,00.0,35.2,27.8,14.1,0000.0,0016.18,0002.82,0000.74
2021-11-14 06:33:00,,0832.7,5.01,0.00,26.1,25.2,00.0,35.2,27.8,14.1,0000.0,0016.37,0002.71,0000.74
2021-11-14 06:34:00,,0832.7,4.99,0.00,26.0,25.1,00.0,35.2,27.8,14.1,0000.0,0016.43,0002.67,0000.73
2021-11-14 06:35:00,,0832.7,5.01,0.00,26.0,25.1,00.0,35.2,27.7,14.2,0000.0,0015.44,0002.64,0000.73
2021-11-14 06:36:00,,0832.6,5.00,0.00,26.0,25.1,00.0,35.2,27.7,14.2,0000.0,0015.47,0002.63,0000.73
2021-11-14 06:37:00,,0832.7,5.00,0.00,26.0,25.1,00.0,35.1,27.7,14.2,0000.0,0016.36,0002.64,0000.72
2021-11-14 06:38:00,,0832.7,4.99,0.00,26.0,25.1,00.0,35.1,27.8,14.2,0000.0,0016.13,0002.66,0000.72
2021-11-14 06:39:00,,0832.6,4.99,0.00,26.0,25.2,00.0,35.1,27.8,14.1,0000.0,0015.97,0002.73,0000.74
2021-11-14 06:40:00,,0832.6,5.01,0.00,26.1,25.2,00.0,35.1,27.9,14.1,0000.0,0015.16,0002.78,0000.75
2021-11-14 06:41:00,,0832.7,4.99,0.00,26.1,25.3,00.0,35.1,27.9,14.2,0000.0,0015.21,0002.84,0000.75
2021-11-14 06:42:00,,0832.7,5.00,0.00,26.1,25.3,00.0,35.1,27.8,14.2,0000.0,0015.44,0002.95,0000.76
2021-11-14 06:43:00,,0832.8,5.01,0.00,26.0,25.3,00.0,35.1,27.8,14.2,0000.0,0016.28,0003.02,0000.77
2021-11-14 06:44:00,,0832.8,4.99,0.00,26.0,25.2,00.0,35.1,27.8,14.2,0000.0,0016.25,0003.11,0000.77
2021-11-14 06:45:00,,0832.7,5.00,0.00,26.0,25.2,00.0,35.1,27.7,14.1,0000.0,0016.10,0003.08,0000.78
2021-11-14 06:46:00,,0832.6,5.00,0.00,26.0,25.2,00.0,35.1,27.7,14.1,0000.0,0016.03,0003.06,0000.79
2021-11-14 06:47:00,,0832.6,5.01,0.00,26.0,25.2,00.0,35.1,27.7,14.0,0000.0,0016.49,0003.13,0000.81
2021-11-14 06:48:00,,0832.7,4.99,0.00,26.0,25.1,00.0,35.1,27.8,14.0,0000.0,0015.78,0003.18,0000.83
2021-11-14 06:49:00,,0832.8,5.01,0.00,26.0,25.2,00.0,35.1,27.8,14.0,0000.0,0015.83,0003.19,0000.84
2021-11-14 06:50:00,,0832.9,5.00,0.00,26.0,25.2,00.0,35.1,27.8,14.0,0000.0,0016.17,0003.21,0000.85
2021-11-14 06:51:00,,0832.8,5.00,0.00,26.0,25.2,00.0,35.1,27.8,14.0,0000.0,0016.87,0003.23,0000.85
2021-11-14 06:52:00,,0832.8,4.99,0.00,26.0,25.2,00.0,35.1,27.8,14.0,0000.0,0017.32,0003.23,0000.87
2021-11-14 06:53:00,,0832.7,5.01,0.00,26.0,25.2,00.0,35.0,27.7,14.0,0000.0,0016.55,0003.17,0000.86
2021-11-14 06:54:00,,0832.7,5.00,0.00,26.0,25.2,00.0,35.0,27.7,14.0,0000.0,0015.89,0003.15,0000.86
2021-11-14 06:55:00,,0832.8,4.99,0.00,26.0,25.2,00.0,35.0,27.7,14.0,0000.0,0016.66,0003.08,0000.86
2021-11-14 06:56:00,,0832.8,5.01,0.00,26.0,25.2,00.0,35.0,27.7,14.0,0000.0,0016.96,0003.14,0000.87
2021-11-14 06:57:00,,0832.7,4.99,0.00,26.0,25.2,00.0,35.0,27.7,14.0,0000.0,0016.94,0003.15,0000.87
2021-11-14 06:58:00,,0832.6,4.99,0.00,26.0,25.2,00.0,35.0,27.7,14.0,0000.0,0016.29,0003.10,0000.86
2021-11-14 06:59:00,,0832.6,5.01,0.00,26.0,25.2,00.0,35.0,27.7,14.1,0000.0,0016.33,0003.12,0000.85
